Regional Weather Roundup
Issued by NWS Goodland, KS

Home | Current Version | Previous Version | Graphics & Text | Print | Product List | Glossary On
Versions: 1 2 3 4 5 6 7 8 9 10 11 12 13 14 15 16 17 18 19 20 21 22 23 24 25 26 27 28 29 30 31 32 33 34 35 36 37 38 39 40 41 42 43 44 45 46 47 48 49 50
000
ASUS43 KGLD 270808
RWRGLD

GOODLAND FORECAST AREA HOURLY WEATHER ROUNDUP
NATIONAL WEATHER SERVICE GOODLAND KS
200 AM MDT WED JUL 27 2016

...OFFICIAL OBSERVATIONS...

CITY           SKY/WX    TMP DP  RH WIND       PRES   REMARKS
GOODLAND KS    CLOUDY    68  58  70 SW3       30.05F
HILL CITY KS   CLOUDY    74  68  81 NE15G24   30.08R
IMPERIAL NEB   CLOUDY    66  58  75 E15       30.10F
MCCOOK NEB     MOCLDY    64  60  87 E21       30.09F
AKRON CO       CLOUDY    68  54  60 S9        30.12S
BURLINGTON CO  CLOUDY    70  58  65 SW13      30.08F
LIMON CO       NOT AVBL
$$

...UNOFFICIAL OBSERVATIONS...

CITY           SKY/WX    TMP DP  RH WIND       PRES   REMARKS
COLBY KS       CLEAR     70  63  78 NE12G29   30.12R
LENORA KS        N/A     67  32  27 MISG        N/A
NORTON KS      PTCLDY    64  55  72 NE17G30   30.10F
YUMA CO          N/A     65  59  80 CALM        N/A
$$



USA.gov is the U.S. government's official web portal to all federal, state and local government web resources and services.